Regional Weather Roundup
Issued by NWS

Home | Current Version | Previous Version | Text Only | Print | Product List | Glossary On
Versions: 1 2 3 4 5 6 7 8 9 10 11 12 13 14 15 16 17 18 19 20 21 22 23 24 25 26 27 28 29 30 31 32 33 34 35 36 37 38 39 40 41 42 43 44 45 46 47 48 49 50
000
ASUS45 KBOU 231107
RWRCO

WEATHER ROUNDUP FOR COLORADO
NATIONAL WEATHER SERVICE DENVER/BOULDER CO
500 AM MDT SAT MAY 23 2015

NOTE: "FAIR" INDICATES FEW OR NO CLOUDS BELOW 12000 FEET WITH NO
SIGNIFICANT WEATHER AND/OR OBSTRUCTIONS TO VISIBILITY.

COZ001>005-013-030-031-231200-
...NORTHWEST COLORADO...

CITY           SKY/WX    TMP DP  RH WIND       PRES   REMARKS
CRAIG          PTCLDY    39  35  86 E3        30.00S
HAYDEN         PTCLDY    39  34  81 E13       30.00F
MEEKER         LGT RAIN  42  37  82 MISG      30.03R
MOUNT WERNER   NOT AVBL
STEAMBOAT SPGS PTCLDY    37  35  95 CALM      30.02F
WALDEN         MOCLDY    36  32  87 CALM      29.97F
$$

COZ006>008-011-231200-
...WEST CENTRAL VALLEYS...

CITY           SKY/WX    TMP DP  RH WIND       PRES   REMARKS
GRAND JUNCTION PTCLDY    44  41  89 SE9       29.95S
MONTROSE       PTCLDY    46  36  68 S8        30.00F
EAGLE          CLOUDY    45  45 100 W5        30.07S
RIFLE          MOCLDY    46  41  82 CALM      29.99F
DELTA          PTCLDY    49  42  74 MISG      29.98F
NUCLA          PTCLDY    43  34  70 E7        30.04S
$$

COZ017>023-064>068-231200-
...SOUTHWEST COLORADO...

CITY           SKY/WX    TMP DP  RH WIND       PRES   REMARKS
DURANGO        MOCLDY    42  36  79 S3        30.03F
CORTEZ         MOCLDY    37  35  92 NE9       30.02F
PAGOSA SPRINGS CLOUDY    43  40  90 W3        30.08R
TELLURIDE      PTCLDY    36  30  81 SE10      30.10F
WOLF CREEK PAS NOT AVBL
$$

COZ009-010-012-014-032>034-037-058>063-231200-
...CENTRAL COLORADO...

CITY           SKY/WX    TMP DP  RH WIND       PRES   REMARKS
ASPEN          PTCLDY    36  35  96 SW5       30.05F
BUENA VISTA    PTCLDY    38  35  86 N6        30.08R
COPPER MTN     HVY SNOW  32  28  86 SW3G9     30.20R VSB 1/4
BERTHOUD PASS  FAIR      23  16  74 CALM      30.22S
COTTONWOOD PAS PTCLDY    37  32  81 CALM      30.13R
GUNNISON       MOCLDY    36  30  80 SE3       30.11F
KREMMLING      MOCLDY    37  36  93 E6        30.08F
LEADVILLE      CLOUDY    30  30 100 E5        30.11F WCI  25
MONARCH PASS   FOG       28  27  93 MISG      30.29R VSB<1/4
SALIDA         PTCLDY    40  37  86 W5        30.14R
SUNLIGHT       PTCLDY    32  32 100 CALM      30.16F
WILKERSON PASS PTCLDY    32  30  93 S5        30.21S WCI  27
$$

COZ069>075-231200-
...SAN LUIS VALLEY/SANGRE DE CRISTO MOUNTAINS...

CITY           SKY/WX    TMP DP  RH WIND       PRES   REMARKS
ALAMOSA        CLEAR     38  35  89 W7        30.05R
LA VETA PASS   MOCLDY   N/A N/A N/A MISG      30.12F
SAGUACHE       PTCLDY    37  34  87 NW9       30.08R
$$

COZ035-036-038>040-231200-
...NORTHERN COLORADO FRONT RANGE...

CITY           SKY/WX    TMP DP  RH WIND       PRES   REMARKS
DENVER INTL AP FOG       46  45  96 N6        30.02S VSB 1/4
DMNS CITY PARK   N/A     45  45  98 NE3       30.03R
AURORA         MOCLDY    45  45 100 SE2       30.03S
FRONT RANGE AP NOT AVBL
ERIE MUNI ARPT FOG       44  44 100 N3        30.01S VSB 1/4
BOULDER MUN AP CLOUDY    46  46 100 CALM      30.01F FOG
CENTENNIAL     CLOUDY    47  46  97 N6        30.02F FOG
BROOMFIELD     FOG       46  46 100 N7        30.03S VSB 1/2
FORT COLLINS   CLOUDY    48  46  93 SE3       30.04S
LONGMONT       CLOUDY    50  49  95 N5        30.04S FOG
$$

COZ041-046-047-076>085-087-088-231200-
...PIKES PEAK/PALMER DIVIDE AND SOUTHERN FOOTHILLS...

CITY           SKY/WX    TMP DP  RH WIND       PRES   REMARKS
COLO. SPRINGS  MOCLDY    46  42  86 VRB5      30.04R
A. F. ACADEMY  MOCLDY    44  44  99 N8        30.05R
ELLICOTT       NOT AVBL
FALCON         CLOUDY    45  44  97 N12       30.07R
FORT CARSON    PTCLDY    44  43  94 NW9       30.01R
LIMON          CLOUDY    48  48 100 NE3       30.02R FOG
MONUMENT HILL  NOT AVBL
TRINIDAD       LGT RAIN  49  45  86 NW12      29.98F
$$

COZ042>045-048>051-090-091-231200-
...NORTHEAST COLORADO...

CITY           SKY/WX    TMP DP  RH WIND       PRES   REMARKS
GREELEY ARPT   CLOUDY    48  46  93 CALM      30.02F
AKRON          FOG       50  50 100 E10       30.02R VSB 1/4
BURLINGTON     FOG       54  53  97 SE13      30.02R VSB 3/4
WRAY           CLOUDY   N/A N/A N/A E14       30.02R FOG
STERLING       CLOUDY    50  50 100 CALM      30.02R
HOLYOKE        NOT AVBL
FORT MORGAN    CLOUDY    49  48  96 NE6       30.04R FOG
$$

COZ086-089-092>099-231200-
...SOUTHEAST COLORADO...

CITY           SKY/WX    TMP DP  RH WIND       PRES   REMARKS
PUEBLO         MOCLDY    49  46  90 CALM      29.99R
LA JUNTA       CLOUDY    53  50  89 S5        29.96F
LAMAR          CLOUDY    55  54  96 SE8       29.95F
SPRINGFIELD      N/A     52  50  93 S12       30.08R
$$


USA.gov is the U.S. government's official web portal to all federal, state and local government web resources and services.